Location: Atbuku
(36.4936°N, 30.4362°E)
Time: 21:28:53
(UTC+00:00)

IRS-P3 - Pass Details

Date: 23 March 2026
Orbit: 810 x 816 km, 99.0° (Epoch: 11 April)

Event Time Altitude Azimuth Distance (km) Brightness Sun altitude
Rises 17:02:51 0° 191° (S) 3,325 7.3 -10.9°
Reaches altitude 10° 17:05:25 10° 201° (SSW) 2,398 6.7 -11.4°
Maximum altitude 17:10:05 31° 263° (W) 1,394 6.1 -12.3°
Drops below altitude 10° 17:14:47 10° 324° (NW) 2,409 7.3 -13.2°
Sets 17:17:24 0° 335° (NNW) 3,344 7.9 -13.7°
